Location: Palmerston North
(40.3500°S, 175.6170°E)
Time: 07:16:10
(UTC+13:00)

ISS - Pass Details

Date: 22 October 2019
Orbit: 412 x 421 km, 51.6° (Epoch: 22 November)

Event Time Altitude Azimuth Distance (km) Brightness Sun altitude
Rises 21:36:44 0° 267° (W) 2,369 1.0 -20.1°
Reaches altitude 10° 21:39:13 10° 249° (WSW) 1,511 0.2 -20.5°
Maximum altitude 21:41:48 20° 200° (SSW) 1,056 -1.1 -20.9°
Drops below altitude 10° 21:44:24 10° 150° (SSE) 1,522 -0.9 -21.3°
Enters shadow 21:44:52 - 145° (SE) 1,671 -0.7 -21.4°
